Weather in Yevsuh

Ukraine / Luhansk Region     49°12′05″N   39°18′43″E
temp.,
°C
wind,
m/s
gust,
m/s
humid.,
%
clouds,
%
prec.,
mm/h
press.,
hPa
HPBL,
m
28 july, wed
wed2800:00+20e22405 0.0 101811
03:00+20ene22435 0.0 101812
06:00+20ene11482 0.0 101811
09:00+28ese22325 0.0 1017452
12:00+32se22227 0.0 10162951
15:00+33wsw122029 0.0 10153266
18:00+29s2329100 0.0 101431
21:00+25wsw223639 0.0 101411
29 july, thu
thu2900:00+24sw224512 0.0 101324
03:00+21wsw365746 0.0 1013105
06:00+22sw4106649 0.1 1013283
09:00+26wsw584879 0.1 1013650
12:00+31wsw674012 0.0 10121664
15:00+31w6740100 0.1 10102146
18:00+30nw454292 0.1 10101084
21:00+23wsw226614 0.1 101128
30 july, fri
fri3000:00+22ssw4107349 0.1 1010196
03:00+20wsw378272 0.1 1010131
06:00+21sw367443 0.0 1010174
09:00+26sw4559100 0.3 1010705
12:00+31sw5638100 0.0 10091628
15:00+33wsw563528 0.0 10082354
18:00+31wnw4641100 0.0 10071479
21:00+20nnw2480100 0.7 100974
31 july, sat
sat3100:00+19ne2283100 2.4 101044
03:00+20nw3482100 2.6 100980
06:00+20wnw128731 2.0 101092
09:00+25nw336436 2.0 1010562
12:00+30nnw43467 0.0 10101366
15:00+31nw223712 0.0 10102155
18:00+30nw3339100 0.0 10101397
21:00+25n48515 0.0 1011139
1 august, sun
sun100:00+23ene37520 0.0 1011110
03:00+22e22600 0.0 101118
06:00+23ene226271 0.0 101139
09:00+29e33440 0.0 1011638
12:00+34s35300 0.0 10102243
15:00+36ssw452176 0.0 10093391
18:00+34n222997 0.0 1008541
21:00+28ne234551 0.0 100926